Location: Township of South Roscoe
(37.9570°N, 100.1180°W)
Time: 05:52:11
(UTC+00:00)

PRISM - Pass Details

Date: 05 July 2022
Orbit: 554 x 578 km, 98.2° (Epoch: 12 August)

Event Time Altitude Azimuth Distance (km) Brightness Sun altitude
Rises 10:43:07 0° 33° (NNE) 2,740 ? -7.5°
Reaches altitude 10° 10:45:57 10° 55° (NE) 1,839 ? -7.1°
Maximum altitude 10:48:27 16° 94° (E) 1,482 ? -6.7°
Drops below altitude 10° 10:50:57 10° 134° (SE) 1,832 ? -6.3°
Sets 10:53:46 0° 156° (SSE) 2,724 ? -5.8°
